DAL9763 KLGA-KBOS

Flight info

Callsign DAL9763
Flight time 0h 39m
Altitude 21000
Route MERIT ROBUC3
Aircraft A321/M-VGDW/C

Departure

Time 2026-05-07 01:37
Airport LaGuardia Airport (KLGA)

Arrival

Time 2026-05-07 02:16
Airport Boston Logan International Airport (KBOS)
Time Latitude Longitude Altitude Speed Heading
2026-05-07 01:09 40.77280 -73.86590 18 ft 0 kts 139°
2026-05-07 01:15 40.77280 -73.86591 18 ft 0 kts 139°
2026-05-07 01:23 40.77281 -73.86591 18 ft 0 kts 139°
2026-05-07 01:26 40.77285 -73.86596 18 ft 2 kts 139°
2026-05-07 01:26 40.77297 -73.86609 19 ft 3 kts 124°
2026-05-07 01:26 40.77303 -73.86628 18 ft 3 kts 77°
2026-05-07 01:26 40.77295 -73.86650 19 ft 3 kts 49°
2026-05-07 01:27 40.77289 -73.86660 20 ft 0 kts 43°
2026-05-07 01:29 40.77289 -73.86659 20 ft 1 kts 43°
2026-05-07 01:29 40.77305 -73.86639 19 ft 6 kts 43°
2026-05-07 01:29 40.77333 -73.86607 17 ft 5 kts 39°
2026-05-07 01:29 40.77368 -73.86569 17 ft 9 kts 39°
2026-05-07 01:30 40.77432 -73.86564 17 ft 12 kts 343°
2026-05-07 01:30 40.77504 -73.86579 18 ft 9 kts 328°
2026-05-07 01:30 40.77547 -73.86657 17 ft 12 kts 302°
2026-05-07 01:30 40.77588 -73.86742 17 ft 10 kts 302°
2026-05-07 01:31 40.77623 -73.86815 17 ft 10 kts 302°
2026-05-07 01:31 40.77671 -73.86916 17 ft 15 kts 302°
2026-05-07 01:31 40.77723 -73.87025 18 ft 13 kts 302°
2026-05-07 01:31 40.77775 -73.87133 18 ft 14 kts 302°
2026-05-07 01:32 40.77826 -73.87238 18 ft 15 kts 302°
2026-05-07 01:32 40.77880 -73.87353 18 ft 9 kts 302°
2026-05-07 01:32 40.77895 -73.87384 18 ft 0 kts 302°
2026-05-07 01:33 40.77911 -73.87418 19 ft 9 kts 302°
2026-05-07 01:33 40.77961 -73.87525 18 ft 17 kts 301°
2026-05-07 01:33 40.78025 -73.87657 18 ft 17 kts 302°
2026-05-07 01:33 40.78086 -73.87783 18 ft 16 kts 302°
2026-05-07 01:34 40.78132 -73.87848 18 ft 0 kts 340°
2026-05-07 01:35 40.78140 -73.87852 18 ft 5 kts 340°
2026-05-07 01:35 40.78203 -73.87855 18 ft 9 kts 24°
2026-05-07 01:36 40.78203 -73.87795 18 ft 7 kts 125°
2026-05-07 01:36 40.78130 -73.87645 18 ft 47 kts 122°
2026-05-07 01:36 40.77820 -73.86990 19 ft 118 kts 122°
2026-05-07 01:36 40.77278 -73.85851 85 ft 167 kts 124°
2026-05-07 01:37 40.76677 -73.84552 748 ft 165 kts 125°
2026-05-07 01:37 40.76080 -73.83254 1505 ft 166 kts 128°
2026-05-07 01:37 40.75674 -73.82378 1872 ft 175 kts 128°
2026-05-07 01:37 40.75186 -73.80751 2203 ft 208 kts 99°
2026-05-07 01:38 40.75370 -73.78792 2665 ft 222 kts 65°
2026-05-07 01:38 40.76268 -73.77153 3093 ft 222 kts 35°
2026-05-07 01:38 40.77560 -73.76012 3441 ft 228 kts 22°
2026-05-07 01:38 40.79025 -73.75058 3706 ft 243 kts 20°
2026-05-07 01:39 40.80630 -73.74109 4003 ft 264 kts 18°
2026-05-07 01:39 40.82391 -73.73166 4441 ft 280 kts 16°
2026-05-07 01:39 40.84229 -73.72207 5127 ft 287 kts 16°
2026-05-07 01:39 40.86104 -73.71232 5868 ft 292 kts 15°
2026-05-07 01:40 40.88014 -73.70235 6588 ft 298 kts 17°
2026-05-07 01:40 40.89829 -73.68796 7253 ft 310 kts 31°
2026-05-07 01:40 40.91565 -73.67060 7937 ft 317 kts 33°
2026-05-07 01:40 40.93282 -73.65187 8628 ft 322 kts 35°
2026-05-07 01:41 40.94994 -73.63233 9314 ft 328 kts 36°
2026-05-07 01:41 40.96720 -73.61230 9967 ft 333 kts 36°
2026-05-07 01:41 40.98497 -73.59170 10310 ft 350 kts 36°
2026-05-07 01:41 41.00392 -73.56996 10463 ft 372 kts 36°
2026-05-07 01:42 41.02414 -73.54693 10589 ft 394 kts 36°
2026-05-07 01:42 41.04535 -73.52289 10923 ft 406 kts 36°
2026-05-07 01:42 41.06693 -73.49837 11502 ft 412 kts 37°
2026-05-07 01:42 41.08879 -73.47347 12119 ft 416 kts 37°
2026-05-07 01:43 41.11087 -73.44826 12718 ft 421 kts 37°
2026-05-07 01:43 41.13316 -73.42281 13314 ft 426 kts 37°
2026-05-07 01:43 41.15577 -73.39699 13882 ft 431 kts 37°
2026-05-07 01:43 41.17856 -73.37097 14437 ft 433 kts 36°
2026-05-07 01:44 41.20148 -73.34480 15005 ft 436 kts 36°
2026-05-07 01:44 41.22456 -73.31839 15558 ft 439 kts 37°
2026-05-07 01:44 41.24774 -73.29180 16125 ft 442 kts 36°
2026-05-07 01:44 41.27104 -73.26507 16665 ft 445 kts 36°
2026-05-07 01:45 41.29458 -73.23806 17199 ft 448 kts 36°
2026-05-07 01:45 41.31854 -73.21053 17736 ft 451 kts 37°
2026-05-07 01:45 41.34187 -73.18235 18217 ft 457 kts 43°
2026-05-07 01:45 41.36201 -73.14918 18616 ft 466 kts 53°
2026-05-07 01:46 41.37779 -73.11120 18991 ft 473 kts 65°
2026-05-07 01:46 41.38854 -73.06958 19371 ft 478 kts 77°
2026-05-07 01:46 41.39424 -73.02576 19732 ft 483 kts 83°
2026-05-07 01:46 41.39899 -72.98121 20105 ft 488 kts 83°
2026-05-07 01:47 41.40378 -72.93627 20460 ft 493 kts 82°
2026-05-07 01:47 41.40862 -72.89092 20758 ft 498 kts 82°
2026-05-07 01:47 41.41349 -72.84499 20844 ft 506 kts 82°
2026-05-07 01:47 41.41847 -72.79801 20854 ft 519 kts 82°
2026-05-07 01:48 41.42355 -72.75012 20849 ft 525 kts 82°
2026-05-07 01:48 41.42866 -72.70189 20848 ft 526 kts 82°
2026-05-07 01:48 41.43375 -72.65359 20866 ft 527 kts 82°
2026-05-07 01:48 41.43882 -72.60524 20868 ft 527 kts 82°
2026-05-07 01:49 41.44384 -72.55687 20868 ft 526 kts 83°
2026-05-07 01:49 41.44881 -72.50855 20869 ft 526 kts 83°
2026-05-07 01:49 41.45376 -72.46030 20869 ft 526 kts 83°
2026-05-07 01:49 41.45871 -72.41202 20864 ft 523 kts 83°
2026-05-07 01:50 41.46357 -72.36464 20857 ft 508 kts 83°
2026-05-07 01:50 41.46832 -72.31835 20863 ft 502 kts 83°
2026-05-07 01:50 41.47302 -72.27221 20862 ft 501 kts 83°
2026-05-07 01:50 41.47926 -72.22659 20857 ft 500 kts 75°
2026-05-07 01:51 41.48988 -72.18254 20858 ft 499 kts 66°
2026-05-07 01:51 41.50462 -72.14030 20861 ft 505 kts 61°
2026-05-07 01:51 41.52019 -72.09820 20859 ft 507 kts 61°
2026-05-07 01:51 41.53573 -72.05593 20858 ft 508 kts 61°
2026-05-07 01:52 41.55124 -72.01350 20858 ft 508 kts 62°
2026-05-07 01:52 41.56619 -71.97070 20851 ft 509 kts 64°
2026-05-07 01:52 41.57997 -71.92725 20746 ft 505 kts 66°
2026-05-07 01:52 41.59268 -71.88397 20498 ft 498 kts 68°
2026-05-07 01:53 41.60481 -71.84084 20258 ft 494 kts 68°
2026-05-07 01:53 41.61669 -71.79811 19970 ft 487 kts 69°
2026-05-07 01:53 41.62858 -71.75593 19447 ft 482 kts 68°
2026-05-07 01:53 41.64052 -71.71459 19232 ft 470 kts 68°
2026-05-07 01:54 41.65230 -71.67459 19109 ft 454 kts 68°
2026-05-07 01:54 41.66376 -71.63599 18725 ft 438 kts 68°
2026-05-07 01:54 41.67487 -71.59851 18345 ft 431 kts 69°
2026-05-07 01:54 41.68583 -71.56136 17947 ft 427 kts 69°
2026-05-07 01:55 41.69666 -71.52454 17529 ft 424 kts 69°
2026-05-07 01:55 41.70737 -71.48802 17112 ft 420 kts 69°
2026-05-07 01:55 41.71797 -71.45171 16699 ft 417 kts 69°
2026-05-07 01:55 41.73010 -71.41666 16296 ft 414 kts 59°
2026-05-07 01:56 41.74427 -71.38335 15895 ft 411 kts 59°
2026-05-07 01:56 41.75841 -71.35024 15504 ft 408 kts 59°
2026-05-07 01:56 41.77251 -71.31731 15105 ft 406 kts 59°
2026-05-07 01:56 41.78652 -71.28461 14675 ft 404 kts 59°
2026-05-07 01:57 41.80044 -71.25207 14250 ft 402 kts 59°
2026-05-07 01:57 41.81431 -71.21964 13796 ft 399 kts 59°
2026-05-07 01:57 41.82802 -71.18750 13362 ft 396 kts 59°
2026-05-07 01:57 41.84165 -71.15542 12823 ft 394 kts 59°
2026-05-07 01:58 41.85506 -71.12379 12253 ft 387 kts 59°
2026-05-07 01:58 41.86835 -71.09266 11750 ft 383 kts 58°
2026-05-07 01:58 41.88167 -71.06183 11405 ft 380 kts 58°
2026-05-07 01:58 41.89492 -71.03125 11061 ft 378 kts 58°
2026-05-07 01:59 41.90808 -71.00091 10722 ft 374 kts 58°
2026-05-07 01:59 41.92112 -70.97089 10383 ft 370 kts 58°
2026-05-07 01:59 41.93395 -70.94124 10087 ft 364 kts 58°
2026-05-07 01:59 41.94642 -70.91232 10024 ft 351 kts 58°
2026-05-07 02:00 41.95836 -70.88450 10032 ft 339 kts 58°
2026-05-07 02:00 41.97008 -70.85717 10034 ft 337 kts 58°
2026-05-07 02:00 41.98175 -70.82993 10031 ft 336 kts 58°
2026-05-07 02:00 41.99342 -70.80266 10035 ft 337 kts 58°
2026-05-07 02:01 42.00511 -70.77538 10032 ft 336 kts 57°
2026-05-07 02:01 42.01872 -70.75025 9712 ft 330 kts 44°
2026-05-07 02:01 42.03409 -70.72741 9343 ft 329 kts 44°
2026-05-07 02:01 42.04936 -70.70466 8987 ft 327 kts 45°
2026-05-07 02:02 42.06451 -70.68204 8668 ft 324 kts 45°
2026-05-07 02:02 42.07947 -70.65962 8348 ft 321 kts 45°
2026-05-07 02:02 42.09491 -70.63823 8062 ft 315 kts 33°
2026-05-07 02:02 42.11360 -70.62420 7747 ft 302 kts 12°
2026-05-07 02:03 42.13374 -70.61726 7376 ft 299 kts
2026-05-07 02:03 42.15396 -70.61077 7035 ft 298 kts
2026-05-07 02:03 42.17408 -70.60432 6718 ft 296 kts
2026-05-07 02:03 42.19402 -70.59791 6401 ft 294 kts
2026-05-07 02:04 42.21386 -70.59151 6058 ft 293 kts
2026-05-07 02:04 42.23362 -70.58516 5694 ft 292 kts
2026-05-07 02:04 42.25333 -70.57883 5348 ft 290 kts
2026-05-07 02:04 42.27291 -70.57250 5063 ft 288 kts
2026-05-07 02:05 42.29236 -70.56629 5016 ft 287 kts
2026-05-07 02:05 42.31190 -70.56476 5023 ft 278 kts 347°
2026-05-07 02:05 42.33031 -70.57068 5023 ft 268 kts 331°
2026-05-07 02:05 42.34626 -70.58288 5018 ft 260 kts 315°
2026-05-07 02:06 42.35939 -70.59935 5018 ft 257 kts 309°
2026-05-07 02:06 42.37220 -70.61625 5015 ft 258 kts 310°
2026-05-07 02:06 42.38505 -70.63272 5007 ft 258 kts 311°
2026-05-07 02:06 42.39810 -70.64938 5011 ft 258 kts 311°
2026-05-07 02:07 42.41109 -70.66602 5004 ft 257 kts 311°
2026-05-07 02:07 42.43701 -70.69949 4993 ft 252 kts 311°
2026-05-07 02:07 42.44944 -70.71544 4883 ft 241 kts 311°
2026-05-07 02:08 42.46120 -70.73050 4752 ft 225 kts 311°
2026-05-07 02:08 42.47222 -70.74446 4521 ft 213 kts 311°
2026-05-07 02:08 42.48299 -70.75806 4184 ft 210 kts 311°
2026-05-07 02:08 42.49367 -70.77156 3833 ft 209 kts 311°
2026-05-07 02:09 42.50426 -70.78500 3503 ft 208 kts 311°
2026-05-07 02:09 42.51481 -70.79839 3174 ft 207 kts 311°
2026-05-07 02:09 42.52529 -70.81173 3004 ft 207 kts 311°
2026-05-07 02:09 42.53574 -70.82512 3004 ft 206 kts 311°
2026-05-07 02:10 42.54598 -70.83826 2994 ft 195 kts 310°
2026-05-07 02:10 42.55541 -70.85029 3015 ft 180 kts 306°
2026-05-07 02:10 42.55977 -70.86487 3002 ft 165 kts 267°
2026-05-07 02:10 42.55581 -70.87924 3007 ft 166 kts 239°
2026-05-07 02:11 42.54903 -70.89208 3003 ft 168 kts 236°
2026-05-07 02:11 42.54473 -70.89985 3003 ft 168 kts 236°
2026-05-07 02:11 42.53771 -70.91247 3000 ft 167 kts 237°
2026-05-07 02:11 42.52977 -70.92396 3001 ft 171 kts 219°
2026-05-07 02:12 42.51873 -70.93055 2961 ft 175 kts 206°
2026-05-07 02:12 42.50730 -70.93603 2791 ft 173 kts 207°
2026-05-07 02:12 42.49620 -70.94138 2583 ft 165 kts 206°
2026-05-07 02:12 42.48586 -70.94637 2379 ft 151 kts 207°
2026-05-07 02:13 42.47614 -70.95110 2191 ft 147 kts 209°
2026-05-07 02:13 42.46667 -70.95572 2022 ft 143 kts 209°
2026-05-07 02:13 42.45734 -70.96026 1796 ft 142 kts 209°
2026-05-07 02:13 42.44810 -70.96476 1632 ft 141 kts 208°
2026-05-07 02:14 42.43880 -70.96928 1406 ft 142 kts 206°
2026-05-07 02:14 42.42961 -70.97372 1204 ft 143 kts 206°
2026-05-07 02:14 42.42019 -70.97834 994 ft 144 kts 204°
2026-05-07 02:14 42.41085 -70.98287 845 ft 144 kts 202°
2026-05-07 02:15 42.40152 -70.98738 667 ft 142 kts 201°
2026-05-07 02:15 42.39204 -70.99195 490 ft 144 kts 202°
2026-05-07 02:15 42.38276 -70.99644 305 ft 144 kts 199°
2026-05-07 02:15 42.37340 -71.00105 83 ft 142 kts 199°
2026-05-07 02:16 42.36457 -71.00530 25 ft 115 kts 200°
2026-05-07 02:16 42.35926 -71.00787 27 ft 43 kts 199°
2026-05-07 02:16 42.35684 -71.00903 28 ft 34 kts 199°
2026-05-07 02:16 42.35487 -71.00998 30 ft 25 kts 199°
2026-05-07 02:17 42.35382 -71.01097 27 ft 15 kts 271°
2026-05-07 02:17 42.35412 -71.01223 25 ft 14 kts 290°
2026-05-07 02:17 42.35440 -71.01329 27 ft 8 kts 289°
2026-05-07 02:17 42.35479 -71.01363 27 ft 7 kts
2026-05-07 02:18 42.35530 -71.01346 26 ft 9 kts 17°
2026-05-07 02:18 42.35596 -71.01321 25 ft 10 kts
2026-05-07 02:18 42.35664 -71.01305 25 ft 9 kts 15°
2026-05-07 02:18 42.35721 -71.01280 28 ft 8 kts 21°
2026-05-07 02:19 42.35795 -71.01242 27 ft 13 kts 17°
2026-05-07 02:19 42.35841 -71.01274 25 ft 11 kts 297°
2026-05-07 02:19 42.35862 -71.01397 27 ft 14 kts 281°
2026-05-07 02:19 42.35880 -71.01525 28 ft 13 kts 280°
2026-05-07 02:20 42.35895 -71.01647 27 ft 13 kts 279°
2026-05-07 02:20 42.35911 -71.01762 27 ft 12 kts 281°
2026-05-07 02:20 42.35941 -71.01868 27 ft 13 kts 300°
2026-05-07 02:20 42.35988 -71.01977 27 ft 13 kts 301°
2026-05-07 02:21 42.36023 -71.02045 26 ft 1 kts 322°
2026-05-07 02:21 42.36026 -71.02047 26 ft 1 kts 328°
2026-05-07 02:21 42.36051 -71.02067 25 ft 7 kts 329°
2026-05-07 02:21 42.36086 -71.02068 27 ft 3 kts 47°
2026-05-07 02:22 42.36092 -71.02036 30 ft 4 kts 76°
2026-05-07 02:22 42.36097 -71.02005 27 ft 3 kts 77°
2026-05-07 02:22 42.36100 -71.01991 25 ft 0 kts 77°